API VERSION: 1.2 API SOURCE: NASA/JPL Horizons API ******************************************************************************* JPL/HORIZONS 99P/Kowal 1 2025-Dec-12 18:05:30 Rec #:90000940 (+COV) Soln.date: 2024-Aug-26_13:15:15 # obs: 1698 (1977-2024) IAU76/J2000 helio. ecliptic osc. elements (au, days, deg., period=Julian yrs): EPOCH= 2457020.5 ! 2014-Dec-29.0000000 (TDB) RMSW= n.a. EC= .2296987965237348 QR= 4.725878538835138 TP= 2459677.889792291 OM= 28.17946402292447 W= 174.1923438732056 IN= 4.337499687966518 A= 6.135104706454939 MA= 187.6440154333754 ADIST= 7.54433087407474 PER= 15.196415900654 N= .064859128 ANGMOM= .04146886 DAN= 7.5328 DDN= 4.73041 L= 202.3883287 B= .4384935 MOID= 3.72360992 TP= 2022-Apr-08.3897922910 Comet physical (GM= km^3/s^2; RAD= km): GM= n.a. RAD= 5.1 M1= 6.7 M2= 11.5 k1= 12. k2= 5. PHCOF= .030 COMET comments 1: soln ref.= JPL#74, data arc: 1977-04-24 to 2024-07-25 2: k1=12., k2=5., phase coef.=0.03; ******************************************************************************* ******************************************************************************* Ephemeris / API_USER Fri Dec 12 18:05:30 2025 Pasadena, USA / Horizons ******************************************************************************* Target body name: 99P/Kowal 1 {source: JPL#74} Center body name: Earth (399) {source: DE441} Center-site name: GEOCENTRIC ******************************************************************************* Start time : A.D. 2037-May-03 00:00:00.0000 UT Stop time : A.D. 2037-May-09 00:00:00.0000 UT Step-size : 180 minutes ******************************************************************************* Target pole/equ : undefined Target radii : 5.1 km Center geodetic : 0.0, 0.0, -6378.137 {E-lon(deg),Lat(deg),Alt(km)} Center cylindric: 0.0, 0.0, 0.0 {E-lon(deg),Dxy(km),Dz(km)} Center pole/equ : ITRF93 {East-longitude positive} Center radii : 6378.137, 6378.137, 6356.752 km {Equator_a, b, pole_c} Target primary : Sun Vis. interferer : MOON (R_eq= 1737.400) km {source: DE441} Rel. light bend : Sun {source: DE441} Rel. lght bnd GM: 1.3271E+11 km^3/s^2 Small-body perts: Yes {source: SB441-N16} Atmos refraction: NO (AIRLESS) RA format : HMS Time format : CAL Calendar mode : Mixed Julian/Gregorian EOP file : eop.251212.p260310 EOP coverage : DATA-BASED 1962-JAN-20 TO 2025-DEC-12. PREDICTS-> 2026-MAR-09 Units conversion: 1 au= 149597870.700 km, c= 299792.458 km/s, 1 day= 86400.0 s Table cut-offs 1: Elevation (-90.0deg=NO ),Airmass (>38.000=NO), Daylight (NO ) Table cut-offs 2: Solar elongation ( 0.0,180.0=NO ),Local Hour Angle( 0.0=NO ) Table cut-offs 3: RA/DEC angular rate ( 0.0=NO ) ******************************************************************************* Initial IAU76/J2000 heliocentric ecliptic osculating elements (au, days, deg.): EPOCH= 2457020.5 ! 2014-Dec-29.0000000 (TDB) RMSW= n.a. EC= .2296987965237348 QR= 4.725878538835138 TP= 2459677.889792291 OM= 28.17946402292447 W= 174.1923438732056 IN= 4.337499687966518 Equivalent ICRF heliocentric cartesian coordinates (au, au/d): X= 6.696781244209083E+00 Y= 3.174448485653197E+00 Z= 1.366705656259609E+00 VX=-2.640992820230077E-03 VY= 4.248992118559271E-03 VZ= 2.295899161546697E-03 Comet physical (GM= km^3/s^2; RAD= km): GM= n.a. RAD= 5.1 M1= 6.7 M2= 11.5 k1= 12. k2= 5. PHCOF= .030 ******************************************************************************* Date__(UT)__HR:MN r rdot ************************************************** $$SOE 2037-May-03 00:00 4.752830377808 -0.0177539 2037-May-03 03:00 4.752829119229 -0.0171143 2037-May-03 06:00 4.752827906824 -0.0164746 2037-May-03 09:00 4.752826740593 -0.0158350 2037-May-03 12:00 4.752825620537 -0.0151954 2037-May-03 15:00 4.752824546655 -0.0145558 2037-May-03 18:00 4.752823518948 -0.0139162 2037-May-03 21:00 4.752822537416 -0.0132766 2037-May-04 00:00 4.752821602058 -0.0126369 2037-May-04 03:00 4.752820712875 -0.0119973 2037-May-04 06:00 4.752819869867 -0.0113577 2037-May-04 09:00 4.752819073034 -0.0107181 2037-May-04 12:00 4.752818322376 -0.0100785 2037-May-04 15:00 4.752817617893 -0.0094388 2037-May-04 18:00 4.752816959585 -0.0087992 2037-May-04 21:00 4.752816347453 -0.0081596 2037-May-05 00:00 4.752815781495 -0.0075200 2037-May-05 03:00 4.752815261713 -0.0068803 2037-May-05 06:00 4.752814788106 -0.0062407 2037-May-05 09:00 4.752814360674 -0.0056011 2037-May-05 12:00 4.752813979418 -0.0049614 2037-May-05 15:00 4.752813644337 -0.0043218 2037-May-05 18:00 4.752813355432 -0.0036822 2037-May-05 21:00 4.752813112702 -0.0030425 2037-May-06 00:00 4.752812916148 -0.0024029 2037-May-06 03:00 4.752812765769 -0.0017633 2037-May-06 06:00 4.752812661565 -0.0011236 2037-May-06 09:00 4.752812603537 -0.0004840 2037-May-06 12:00 4.752812591685 0.0001556 2037-May-06 15:00 4.752812626008 0.0007953 2037-May-06 18:00 4.752812706507 0.0014349 2037-May-06 21:00 4.752812833181 0.0020745 2037-May-07 00:00 4.752813006031 0.0027142 2037-May-07 03:00 4.752813225056 0.0033538 2037-May-07 06:00 4.752813490257 0.0039934 2037-May-07 09:00 4.752813801634 0.0046331 2037-May-07 12:00 4.752814159185 0.0052727 2037-May-07 15:00 4.752814562913 0.0059124 2037-May-07 18:00 4.752815012816 0.0065520 2037-May-07 21:00 4.752815508894 0.0071916 2037-May-08 00:00 4.752816051147 0.0078313 2037-May-08 03:00 4.752816639576 0.0084709 2037-May-08 06:00 4.752817274180 0.0091105 2037-May-08 09:00 4.752817954960 0.0097502 2037-May-08 12:00 4.752818681915 0.0103898 2037-May-08 15:00 4.752819455044 0.0110294 2037-May-08 18:00 4.752820274349 0.0116691 2037-May-08 21:00 4.752821139830 0.0123087 2037-May-09 00:00 4.752822051485 0.0129483 $$EOE ******************************************************************************* Column meaning: TIME Times PRIOR to 1962 are UT1, a mean-solar time closely related to the prior but now-deprecated GMT. Times AFTER 1962 are in UTC, the current civil or "wall-clock" time-scale. UTC is kept within 0.9 seconds of UT1 using integer leap-seconds for 1972 and later years. Conversion from the internal Barycentric Dynamical Time (TDB) of solar system dynamics to the non-uniform civil UT time-scale requested for output has not been determined for UTC times after the next July or January 1st. Therefore, the last known leap-second is used as a constant over future intervals. Time tags refer to the UT time-scale conversion from TDB on Earth regardless of observer location within the solar system, although clock rates may differ due to the local gravity field and no analog to "UT" may be defined for that location. Any 'b' symbol in the 1st-column denotes a B.C. date. First-column blank (" ") denotes an A.D. date. CALENDAR SYSTEM Mixed calendar mode was active such that calendar dates after AD 1582-Oct-15 (if any) are in the modern Gregorian system. Dates prior to 1582-Oct-5 (if any) are in the Julian calendar system, which is automatically extended for dates prior to its adoption on 45-Jan-1 BC. The Julian calendar is useful for matching historical dates. The Gregorian calendar more accurately corresponds to the Earth's orbital motion and seasons. A "Gregorian-only" calendar mode is available if such physical events are the primary interest. NOTE: "n.a." in output means quantity "not available" at the print-time. 'r rdot' = The Sun's apparent range ("r", light-time aberrated) and range-rate ("rdot") relative to the target center, as seen by the observer. A positive "rdot" means the target center was moving away from the Sun, negative means moving toward the Sun. Units: AU and KM/S Computations by ... Solar System Dynamics Group, Horizons On-Line Ephemeris System 4800 Oak Grove Drive, Jet Propulsion Laboratory Pasadena, CA 91109 USA General site: https://ssd.jpl.nasa.gov/ Mailing list: https://ssd.jpl.nasa.gov/email_list.html System news : https://ssd.jpl.nasa.gov/horizons/news.html User Guide : https://ssd.jpl.nasa.gov/horizons/manual.html Connect : browser https://ssd.jpl.nasa.gov/horizons/app.html#/x API https://ssd-api.jpl.nasa.gov/doc/horizons.html command-line telnet ssd.jpl.nasa.gov 6775 e-mail/batch https://ssd.jpl.nasa.gov/ftp/ssd/horizons_batch.txt scripts https://ssd.jpl.nasa.gov/ftp/ssd/SCRIPTS Author : Jon.D.Giorgini@jpl.nasa.gov *******************************************************************************